Date String (YYYY-MM-DD hh:mm:ss) UTC,Instrument flags,absolute air pressure of the measurement (hPa),sample flow rate (lpm),inlet stack bypass flow (lpm),air temperature of the measurement (°C),ambient temperature measured by the external sensor (°C),aerosol sample conditioner tube jacket temperature (°C),OPC LED temperature (°C),internal box temperature (°C),relative humidity of the measurement (%),span deviation,mass concentration of particles derived from Lorenz-Mie calculation of OPC scattering (μg/m³),mass concentration of particles derived from Lorenz-Mie calculation of OPC scattering (μg/m³),mass concentration of particles derived from Lorenz-Mie calculation of OPC scattering (μg/m³)
DateTimeUTC,F1_M11,P_M11,Q1_M11,Q2_M11,T1_M11,T2_M11,T3_M11,T4_M11,T5_M11,U1_M11,ZSPAN_M11,X0_M11,X2_M11,X1_M11
2023-12-01 19:00:00,SystemResetWarning,0820.0,5.00,000.00,018.8,018.1,000.0,027.1,020.1,16.8,0002.7,0018.20,0013.06,0012.18
2023-12-01 19:01:00,SystemResetWarning,0819.9,5.00,000.00,018.8,018.1,000.0,027.1,020.1,16.8,0002.8,0018.56,0013.03,0012.19
2023-12-01 19:02:00,SystemResetWarning,0819.9,5.00,000.00,018.8,018.1,000.0,027.1,020.1,16.8,0002.7,0018.34,0013.00,0012.21
2023-12-01 19:03:00,SystemResetWarning,0819.8,4.99,000.00,018.8,018.1,000.0,027.1,020.1,16.6,0002.8,0018.53,0013.03,0012.23
2023-12-01 19:04:00,SystemResetWarning,0819.8,5.00,000.00,018.9,018.1,000.0,027.1,020.1,16.8,0002.8,0018.98,0013.00,0012.24
2023-12-01 19:05:00,SystemResetWarning,0819.8,4.99,000.00,018.9,018.2,000.0,027.1,020.1,16.3,0002.5,0019.56,0013.00,0012.24
2023-12-01 19:06:00,SystemResetWarning,0819.8,5.00,000.00,018.9,018.2,000.0,027.1,020.1,16.2,0002.6,0019.82,0013.00,0012.22
2023-12-01 19:07:00,SystemResetWarning,0819.8,5.00,000.00,018.9,018.2,000.0,027.1,020.1,16.5,0002.3,0019.81,0012.95,0012.17
2023-12-01 19:08:00,SystemResetWarning,0819.8,5.01,000.00,018.9,018.2,000.0,027.2,020.2,16.8,0002.0,0019.93,0012.88,0012.12
2023-12-01 19:09:00,SystemResetWarning,0819.9,5.00,000.00,018.9,018.2,000.0,027.2,020.2,16.4,0001.8,0020.38,0012.86,0012.09
2023-12-01 19:10:00,SystemResetWarning,0819.8,5.01,000.00,018.9,018.2,000.0,027.2,020.2,16.5,0001.8,0020.53,0012.83,0012.03
2023-12-01 19:11:00,SystemResetWarning,0819.8,5.00,000.00,018.9,018.2,000.0,027.2,020.2,16.1,0002.2,0020.40,0012.79,0011.95
2023-12-01 19:12:00,SystemResetWarning,0819.8,5.00,000.00,019.0,018.3,000.0,027.2,020.2,15.5,0001.8,0020.07,0012.73,0011.82
2023-12-01 19:13:00,SystemResetWarning,0819.9,4.99,000.00,019.0,018.3,000.0,027.2,020.2,15.3,0001.1,0020.29,0012.72,0011.75
2023-12-01 19:14:00,SystemResetWarning,0820.0,4.99,000.00,019.0,018.3,000.0,027.2,020.2,15.8,0001.2,0020.76,0012.70,0011.73
2023-12-01 19:15:00,SystemResetWarning,0819.9,5.00,000.00,019.0,018.3,000.0,027.2,020.3,16.5,0001.8,0020.49,0012.70,0011.71
2023-12-01 19:16:00,SystemResetWarning,0819.8,5.01,000.00,019.0,018.3,000.0,027.2,020.3,16.6,0002.5,0021.23,0012.68,0011.67
2023-12-01 19:17:00,SystemResetWarning,0820.1,5.00,000.00,019.0,018.4,000.0,027.2,020.3,16.7,0002.0,0021.83,0012.65,0011.62
2023-12-01 19:18:00,SystemResetWarning,0819.7,5.01,000.00,019.0,018.4,000.0,027.3,020.3,16.7,0002.0,0021.72,0012.54,0011.52
2023-12-01 19:19:00,SystemResetWarning,0819.6,5.01,000.00,019.0,018.4,000.0,027.3,020.3,16.6,0001.8,0021.45,0012.39,0011.37
2023-12-01 19:20:00,SystemResetWarning,0819.5,4.99,000.00,019.1,018.4,000.0,027.3,020.3,16.7,0001.9,0021.52,0012.23,0011.22
2023-12-01 19:21:00,SystemResetWarning,0819.5,5.00,000.00,019.1,018.4,000.0,027.3,020.3,16.0,0001.8,0021.23,0012.11,0011.14
2023-12-01 19:22:00,SystemResetWarning,0819.5,5.01,000.00,019.1,018.4,000.0,027.3,020.3,15.8,0001.5,0021.51,0012.11,0011.14
2023-12-01 19:23:00,SystemResetWarning,0819.4,5.01,000.00,019.1,018.4,000.0,027.3,020.4,15.3,0002.0,0022.81,0012.15,0011.21
2023-12-01 19:24:00,SystemResetWarning,0819.5,5.01,000.00,019.1,018.4,000.0,027.3,020.4,15.7,0002.2,0024.12,0012.18,0011.27
2023-12-01 19:25:00,SystemResetWarning,0819.5,5.01,000.00,019.1,018.4,000.0,027.3,020.4,15.1,0002.3,0023.46,0012.16,0011.25
2023-12-01 19:26:00,SystemResetWarning,0819.5,5.00,000.00,019.1,018.4,000.0,027.3,020.4,14.7,0001.9,0023.25,0012.13,0011.21
2023-12-01 19:27:00,SystemResetWarning,0819.5,4.99,000.00,019.1,018.5,000.0,027.3,020.4,15.0,0002.2,0022.06,0012.00,0011.09
2023-12-01 19:28:00,SystemResetWarning,0819.5,5.00,000.00,019.2,018.5,000.0,027.3,020.5,15.4,0002.5,0020.69,0011.83,0010.95
2023-12-01 19:29:00,SystemResetWarning,0819.5,5.00,000.00,019.2,018.5,000.0,027.4,020.5,16.3,0002.6,0020.49,0011.73,0010.83
2023-12-01 19:30:00,SystemResetWarning,0819.5,5.00,000.00,019.2,018.5,000.0,027.4,020.5,16.8,0002.8,0020.55,0011.68,0010.74
2023-12-01 19:31:00,SystemResetWarning,0819.5,5.00,000.00,019.2,018.6,000.0,027.4,020.5,16.8,0003.1,0020.25,0011.63,0010.64
2023-12-01 19:32:00,SystemResetWarning,0819.5,5.00,000.00,019.2,018.6,000.0,027.4,020.5,16.7,0002.8,0020.17,0011.45,0010.44
2023-12-01 19:33:00,SystemResetWarning,0819.5,5.00,000.00,019.2,018.6,000.0,027.4,020.6,16.7,0003.0,0020.04,0011.29,0010.28
2023-12-01 19:34:00,SystemResetWarning,0819.5,5.00,000.00,019.3,018.6,000.0,027.4,020.6,16.7,0002.8,0018.81,0011.18,0010.11
2023-12-01 19:35:00,SystemResetWarning,0819.4,5.00,000.00,019.3,018.6,000.0,027.4,020.6,16.1,0002.6,0017.56,0011.23,0010.09
2023-12-01 19:36:00,SystemResetWarning,0819.4,5.00,000.00,019.3,018.6,000.0,027.5,020.6,15.8,0002.7,0017.81,0011.55,0010.30
2023-12-01 19:37:00,SystemResetWarning,0819.4,4.99,000.00,019.3,018.7,000.0,027.5,020.6,16.0,0003.4,0018.74,0012.02,0010.60
2023-12-01 19:38:00,SystemResetWarning,0819.5,4.99,000.00,019.3,018.7,000.0,027.5,020.7,15.9,0002.9,0019.54,0012.45,0010.90
2023-12-01 19:39:00,SystemResetWarning,0819.4,5.00,000.00,019.3,018.7,000.0,027.5,020.7,15.7,0002.9,0020.19,0012.85,0011.17
2023-12-01 19:40:00,SystemResetWarning,0819.4,5.00,000.00,019.4,018.7,000.0,027.5,020.7,16.0,0002.4,0020.54,0013.04,0011.33
2023-12-01 19:41:00,SystemResetWarning,0819.5,5.00,000.00,019.4,018.7,000.0,027.5,020.7,16.1,0002.3,0021.42,0013.21,0011.46
2023-12-01 19:42:00,SystemResetWarning,0819.4,5.01,000.00,019.4,018.8,000.0,027.6,020.7,15.8,0001.6,0021.30,0013.26,0011.50
2023-12-01 19:43:00,SystemResetWarning,0819.3,5.00,000.00,019.4,018.8,000.0,027.6,020.7,15.4,0001.6,0021.23,0013.35,0011.60
2023-12-01 19:44:00,SystemResetWarning,0819.4,5.00,000.00,019.4,018.8,000.0,027.6,020.8,15.3,0001.7,0022.59,0013.48,0011.71
2023-12-01 19:45:00,SystemResetWarning,0819.4,5.00,000.00,019.4,018.8,000.0,027.6,020.8,15.8,0002.1,0022.56,0013.49,0011.74
2023-12-01 19:46:00,SystemResetWarning,0819.3,4.99,000.00,019.4,018.8,000.0,027.6,020.8,15.9,0001.9,0022.29,0013.33,0011.62
2023-12-01 19:47:00,SystemResetWarning,0819.3,5.01,000.00,019.5,018.8,000.0,027.6,020.8,16.2,0001.4,0021.86,0012.94,0011.29
2023-12-01 19:48:00,SystemResetWarning,0819.3,5.00,000.00,019.5,018.9,000.0,027.6,020.8,15.5,0000.2,0021.00,0012.34,0010.88
2023-12-01 19:49:00,SystemResetWarning,0819.3,5.00,000.00,019.5,018.9,000.0,027.7,020.9,15.4,0000.5,0020.50,0011.81,0010.52
2023-12-01 19:50:00,SystemResetWarning,0819.3,5.00,000.00,019.5,018.9,000.0,027.7,020.9,16.0,0000.5,0019.82,0011.42,0010.24
2023-12-01 19:51:00,SystemResetWarning,0819.3,5.01,000.00,019.5,018.9,000.0,027.7,020.9,16.5,0000.7,0020.16,0011.33,0010.15
2023-12-01 19:52:00,SystemResetWarning,0819.3,5.00,000.00,019.6,019.0,000.0,027.7,020.9,16.4,0001.0,0019.77,0011.27,0010.15
2023-12-01 19:53:00,SystemResetWarning,0819.3,5.01,000.00,019.6,019.0,000.0,027.7,020.9,16.0,0002.2,0019.97,0011.35,0010.24
2023-12-01 19:54:00,SystemResetWarning,0819.3,4.98,000.00,019.6,019.0,000.0,027.7,020.9,16.1,0002.4,0019.85,0011.48,0010.37
2023-12-01 19:55:00,SystemResetWarning,0819.4,4.99,000.00,019.6,019.0,000.0,027.7,021.0,15.9,0002.2,0018.47,0011.43,0010.37
2023-12-01 19:56:00,SystemResetWarning,0819.3,5.00,000.00,019.6,019.0,000.0,027.8,021.0,16.3,0001.6,0019.21,0011.51,0010.46
2023-12-01 19:57:00,SystemResetWarning,0819.4,5.01,000.00,019.6,019.0,000.0,027.8,021.0,16.9,0002.0,0019.47,0011.59,0010.57
2023-12-01 19:58:00,SystemResetWarning,0819.3,5.01,000.00,019.7,019.0,000.0,027.8,021.0,16.7,0001.8,0019.25,0011.67,0010.69
2023-12-01 19:59:00,SystemResetWarning,0819.3,5.01,000.00,019.7,019.0,000.0,027.8,021.0,16.5,0001.9,0019.19,0011.82,0010.81
